Hourly Data Report for September 05, 2019

All times are specified in Local Standard Time (LST). Add 1 hour to adjust for Daylight Saving Time where and when it is observed.

EUREKA CLIMATE
NUNAVUT
Current Station Operator: ECCC - MSC

79°59'21.000" N
85°56'02.000" W
10.00 m
2401199
71613
NEK

Download Data

Hourly Data (September 2019)
Hourly Data Report for September 5, 2019
TIME Temp Definition
°C
Dew Point Definition
°C
Rel Hum Definition
%
Wind Dir Definition
10's deg

Wind Spd Definition
km/h
Visibility Definition
km
Stn Press Definition
kPa
Hmdx Definition


Wind Chill Definition


Weather Definition


00:00 0.1 -2.1 85 30 14   101.22     LegendNANA
01:00 0.3 -3.0 78 30 8   101.23     LegendNANA
02:00 -0.4 -2.9 83 36 8   101.24   -3 LegendNANA
03:00 -1.1 -2.9 87 2 8   101.28   -4 LegendNANA
04:00 -1.2 -2.9 88 3 10   101.28   -5 LegendNANA
05:00 -1.2 -2.9 88 3 5   101.31   -3 LegendNANA
06:00 -0.6 -2.0 90 6 5   101.32   -2 LegendNANA
07:00 -0.3 -1.7 90 6 3   101.34   -1 LegendNANA
08:00 0.5 -1.3 88 9 5   101.36     LegendNANA
09:00 0.9 -1.2 86 12 8   101.36     LegendNANA
10:00 1.1 -1.9 80 11 7   101.36     LegendNANA
11:00 1.4 -1.7 80 12 7   101.38     LegendNANA
12:00 1.8 -1.5 79 14 5   101.39     LegendNANA
13:00 2.5 -2.0 72 14 2   101.41     LegendNANA
14:00 1.6 -0.9 83 28 5   101.42     LegendNANA
15:00 1.6 -1.7 79 29 7   101.44     LegendNANA
16:00 1.8 -0.5 84 28 8   101.46     LegendNANA
17:00 1.6 -1.4 81 29 11   101.49     LegendNANA
18:00 1.2 -0.8 86 30 13   101.51     LegendNANA
19:00 1.0 -0.5 89 30 9   101.51     LegendNANA
20:00 0.9 -0.8 88 28 8   101.51     LegendNANA
21:00 0.6 -1.2 88 30 10   101.50     LegendNANA
22:00 0.8 -0.9 89 29 12   101.50     LegendNANA
23:00 0.3 -1.0 91 30 7   101.49     LegendNANA

Notes on Data Quality.

Legend

  • E = Estimated
  • M = Missing
  • NA = Not Available
Date modified: